Regional Weather Roundup
Issued by NWS Sioux Falls, SD

Home | Current Version | Previous Version | Graphics & Text | Print | Product List | Glossary On
Versions: 1 2 3 4 5 6 7 8 9 10 11 12 13 14 15 16 17 18 19 20 21 22 23 24 25 26 27 28 29 30 31 32 33 34 35 36 37 38 39 40 41 42 43 44 45 46 47 48 49 50
000
ASUS43 KFSD 281102
RWRFSD

WEATHER ROUNDUP FOR SE SOUTH DAKOTA/SW MINNESOTA/NW IOWA
NATIONAL WEATHER SERVICE SIOUX FALLS SD
600 AM CDT SUN MAY 28 2017

NOTE: "FAIR" INDICATES FEW OR NO CLOUDS BELOW 12,000 FEET WITH NO
SIGNIFICANT WEATHER AND OR OBSTRUCTIONS TO VISIBILITY.


SDZ038>040-050-052>070-281200-
SOUTHEAST SOUTH DAKOTA

CITY           SKY/WX    TMP DP  RH WIND       PRES   REMARKS
BROOKINGS      CLEAR     47  44  90 W7        29.84S
CHAMBERLAIN    PTCLDY    52  46  79 W10       29.90R
HURON          CLEAR     46  43  89 W6        29.85S
MADISON        FAIR      46  46 100 NW9       29.84F
MITCHELL       CLEAR     51  45  79 W9        29.86S
SIOUX FALLS    CLEAR     51  48  89 W6        29.84S
WINNER         FAIR      53  45  74 W8        29.93R
YANKTON        CLEAR     51  46  83 SW7       29.89R
$$

MNZ071-072-080-081-089-090-097-098-281200-
SOUTHWEST MINNESOTA

CITY           SKY/WX    TMP DP  RH WIND       PRES   REMARKS
FAIRMONT       PTCLDY    56  49  77 W15       29.80S
JACKSON        CLEAR     54  46  76 W3        29.83R
LUVERNE        CLEAR     45  43  93 CALM      29.85R
MARSHALL       CLEAR     51  46  83 NW9       29.81S
MONTEVIDEO     CLEAR     52  46  82 NW6       29.79S
PIPESTONE      CLEAR     52  45  76 NW7       29.83S
REDWOOD FALLS  CLEAR     53  46  77 NW10      29.79R
TRACY          CLEAR     55  48  78 NW8       29.82R
WINDOM         CLEAR     52  46  82 W9        29.82R
WORTHINGTON      N/A     52  47  83 W10       29.84R
$$

IAZ001>003-012>014-020>022-031-032-NEZ013-014-SDZ071-281200-
NORTHWEST IOWA

CITY           SKY/WX    TMP DP  RH WIND       PRES   REMARKS
DENISON        CLEAR     52  50  93 SW5       29.87S
ESTHERVILLE    CLEAR     53  50  89 W13       29.80S
LE MARS        CLEAR     52  48  87 W6        29.87R
ORANGE CITY    CLEAR     50  48  93 W7        29.86R
SHELDON        CLEAR     50  48  93 SW5       29.83S
SIOUX CITY     CLEAR     53  49  86 NW8       29.86F
SPENCER        CLEAR     49  47  93 W9        29.83S
STORM LAKE     CLEAR     52  48  87 W12       29.84S
$$

ABBREVIATIONS USED IN REMARKS
   TC - TEMPERATURE IN CELSIUS
  WCI - WIND CHILL INDEX
   HX - HEAT INDEX
  VSB - VISIBILITY





USA.gov is the U.S. government's official web portal to all federal, state and local government web resources and services.